Time,TemperatureF,DewpointF,PressureIn,WindDirection,WindDirectionDegrees,WindSpeedMPH,WindSpeedGustMPH,Humidity,HourlyPrecipIn,Conditions,Clouds,dailyrainin,SoftwareType,DateUTC
2013-07-07 00:10:00,73.0,69.6,30.19,ENE,65,0.0,0.0,89,0.00,,,0.00,Wunderground v.1.15,2013-07-07 04:10:00,
2013-07-07 00:20:00,72.8,69.7,30.18,ENE,66,0.0,0.0,90,0.00,,,0.00,Wunderground v.1.15,2013-07-07 04:20:00,
2013-07-07 00:30:00,72.6,69.5,30.19,ENE,66,0.0,0.0,90,0.00,,,0.00,Wunderground v.1.15,2013-07-07 04:30:00,
2013-07-07 00:40:00,72.4,69.3,30.18,ENE,66,0.0,0.0,90,0.00,,,0.00,Wunderground v.1.15,2013-07-07 04:40:00,
2013-07-07 00:50:00,72.2,69.1,30.18,ENE,66,0.0,0.0,90,0.00,,,0.00,Wunderground v.1.15,2013-07-07 04:50:00,
2013-07-07 01:00:00,72.1,69.0,30.18,ENE,65,0.0,0.0,90,0.00,,,0.00,Wunderground v.1.15,2013-07-07 05:00:00,
2013-07-07 01:10:00,71.9,68.8,30.18,ENE,65,0.0,0.0,90,0.00,,,0.00,Wunderground v.1.15,2013-07-07 05:10:00,
2013-07-07 01:20:00,71.9,68.8,30.18,ENE,65,0.0,0.0,90,0.00,,,0.00,Wunderground v.1.15,2013-07-07 05:20:00,
2013-07-07 01:30:00,71.7,68.6,30.18,ENE,66,0.0,0.0,90,0.00,,,0.00,Wunderground v.1.15,2013-07-07 05:30:00,
2013-07-07 01:40:00,71.5,68.4,30.18,ENE,66,0.0,0.0,90,0.00,,,0.00,Wunderground v.1.15,2013-07-07 05:40:00,
2013-07-07 01:50:00,71.3,68.2,30.17,ENE,66,0.0,0.0,90,0.00,,,0.00,Wunderground v.1.15,2013-07-07 05:50:00,
2013-07-07 02:00:00,71.2,68.4,30.17,ENE,66,0.0,0.0,91,0.00,,,0.00,Wunderground v.1.15,2013-07-07 06:00:00,
2013-07-07 02:10:00,70.9,68.1,30.17,ENE,66,0.0,0.0,91,0.00,,,0.00,Wunderground v.1.15,2013-07-07 06:10:00,
2013-07-07 02:20:00,70.8,68.0,30.17,ENE,65,0.0,0.0,91,0.00,,,0.00,Wunderground v.1.15,2013-07-07 06:20:00,
2013-07-07 02:30:00,70.5,67.7,30.16,ENE,65,0.0,0.0,91,0.00,,,0.00,Wunderground v.1.15,2013-07-07 06:30:00,
2013-07-07 02:40:00,70.3,67.5,30.16,ENE,65,0.0,0.0,91,0.00,,,0.00,Wunderground v.1.15,2013-07-07 06:40:00,
2013-07-07 02:50:00,70.2,67.8,30.16,ENE,66,0.0,0.0,92,0.00,,,0.00,Wunderground v.1.15,2013-07-07 06:50:00,
2013-07-07 03:00:00,70.0,67.6,30.15,ENE,66,0.0,0.0,92,0.00,,,0.00,Wunderground v.1.15,2013-07-07 07:00:00,
2013-07-07 03:10:00,69.8,67.4,30.15,ENE,66,0.0,0.0,92,0.00,,,0.00,Wunderground v.1.15,2013-07-07 07:10:00,
2013-07-07 03:20:00,69.6,67.2,30.15,ENE,66,0.0,0.0,92,0.00,,,0.00,Wunderground v.1.15,2013-07-07 07:20:00,
2013-07-07 03:30:00,69.5,67.1,30.15,ENE,65,0.0,0.0,92,0.00,,,0.00,Wunderground v.1.15,2013-07-07 07:30:00,
2013-07-07 03:40:00,69.4,67.0,30.15,ENE,66,0.0,0.0,92,0.00,,,0.00,Wunderground v.1.15,2013-07-07 07:40:00,
2013-07-07 03:50:00,69.3,66.9,30.15,ENE,66,0.0,0.0,92,0.00,,,0.00,Wunderground v.1.15,2013-07-07 07:50:00,
2013-07-07 04:00:00,69.1,66.7,30.15,ENE,66,0.0,0.0,92,0.00,,,0.00,Wunderground v.1.15,2013-07-07 08:00:00,
2013-07-07 04:10:00,69.0,66.6,30.15,ENE,65,0.0,0.0,92,0.00,,,0.00,Wunderground v.1.15,2013-07-07 08:10:00,
2013-07-07 04:20:00,69.0,66.6,30.15,ENE,65,0.0,0.0,92,0.00,,,0.00,Wunderground v.1.15,2013-07-07 08:20:00,
2013-07-07 04:30:00,68.9,66.5,30.15,ENE,66,0.0,0.0,92,0.00,,,0.00,Wunderground v.1.15,2013-07-07 08:30:00,
2013-07-07 04:40:00,68.7,66.6,30.15,ENE,66,0.0,0.0,93,0.00,,,0.00,Wunderground v.1.15,2013-07-07 08:40:00,
2013-07-07 04:50:00,68.6,66.5,30.15,ENE,66,0.0,0.0,93,0.00,,,0.00,Wunderground v.1.15,2013-07-07 08:50:00,
2013-07-07 05:00:00,68.4,66.3,30.15,ENE,65,0.0,0.0,93,0.00,,,0.00,Wunderground v.1.15,2013-07-07 09:00:00,
2013-07-07 05:10:00,68.3,66.2,30.15,ENE,65,0.0,0.0,93,0.00,,,0.00,Wunderground v.1.15,2013-07-07 09:10:00,
2013-07-07 05:20:00,68.3,66.2,30.15,ENE,65,0.0,0.0,93,0.00,,,0.00,Wunderground v.1.15,2013-07-07 09:20:00,
2013-07-07 05:30:00,68.1,66.0,30.16,ENE,66,0.0,0.0,93,0.00,,,0.00,Wunderground v.1.15,2013-07-07 09:30:00,
2013-07-07 05:40:00,67.9,65.8,30.16,ENE,65,0.0,0.0,93,0.00,,,0.00,Wunderground v.1.15,2013-07-07 09:40:00,
2013-07-07 05:50:00,67.9,65.8,30.16,ENE,65,0.0,0.0,93,0.00,,,0.00,Wunderground v.1.15,2013-07-07 09:50:00,
2013-07-07 06:00:00,67.8,65.7,30.17,ENE,65,0.0,0.0,93,0.00,,,0.00,Wunderground v.1.15,2013-07-07 10:00:00,
2013-07-07 06:10:00,67.8,65.7,30.17,ENE,65,0.0,0.0,93,0.00,,,0.00,Wunderground v.1.15,2013-07-07 10:10:00,
2013-07-07 06:20:00,67.8,65.7,30.17,ENE,65,0.0,0.0,93,0.00,,,0.00,Wunderground v.1.15,2013-07-07 10:20:00,
2013-07-07 06:30:00,67.7,65.6,30.17,ENE,65,0.0,0.0,93,0.00,,,0.00,Wunderground v.1.15,2013-07-07 10:30:00,
2013-07-07 06:40:00,67.6,65.5,30.18,ENE,66,0.0,0.0,93,0.00,,,0.00,Wunderground v.1.15,2013-07-07 10:40:00,
2013-07-07 06:50:00,67.6,65.5,30.17,ENE,66,0.0,0.0,93,0.00,,,0.00,Wunderground v.1.15,2013-07-07 10:50:00,
2013-07-07 07:00:00,67.8,66.0,30.17,ENE,66,0.0,0.0,94,0.00,,,0.00,Wunderground v.1.15,2013-07-07 11:00:00,
2013-07-07 07:10:00,68.1,66.3,30.18,ENE,65,0.0,0.0,94,0.00,,,0.00,Wunderground v.1.15,2013-07-07 11:10:00,
2013-07-07 07:20:00,68.5,66.7,30.18,ENE,66,0.0,0.0,94,0.00,,,0.00,Wunderground v.1.15,2013-07-07 11:20:00,
2013-07-07 07:30:00,69.1,67.3,30.18,ENE,66,0.0,0.0,94,0.00,,,0.00,Wunderground v.1.15,2013-07-07 11:30:00,
2013-07-07 07:40:00,69.6,68.1,30.18,ENE,66,0.0,0.0,95,0.00,,,0.00,Wunderground v.1.15,2013-07-07 11:40:00,
2013-07-07 07:50:00,70.3,68.8,30.18,ENE,66,0.0,0.0,95,0.00,,,0.00,Wunderground v.1.15,2013-07-07 11:50:00,
2013-07-07 08:00:00,70.9,69.4,30.18,ENE,65,0.0,0.0,95,0.00,,,0.00,Wunderground v.1.15,2013-07-07 12:00:00,
2013-07-07 08:10:00,71.6,70.1,30.18,SSW,192,0.0,0.0,95,0.00,,,0.00,Wunderground v.1.15,2013-07-07 12:10:00,
2013-07-07 08:20:00,72.3,70.8,30.18,SSW,192,0.0,1.0,95,0.00,,,0.00,Wunderground v.1.15,2013-07-07 12:20:00,
2013-07-07 08:30:00,73.1,71.3,30.18,SSW,205,0.0,0.0,94,0.00,,,0.00,Wunderground v.1.15,2013-07-07 12:30:00,
2013-07-07 08:40:00,73.5,71.7,30.18,ESE,117,0.0,0.0,94,0.00,,,0.00,Wunderground v.1.15,2013-07-07 12:40:00,
2013-07-07 08:50:00,73.8,71.6,30.18,SSW,204,0.0,1.0,93,0.00,,,0.00,Wunderground v.1.15,2013-07-07 12:50:00,
2013-07-07 09:00:00,74.3,72.5,30.18,SSW,204,0.0,0.0,94,0.00,,,0.00,Wunderground v.1.15,2013-07-07 13:00:00,
2013-07-07 09:10:00,74.6,72.1,30.19,SSW,204,0.0,0.0,92,0.00,,,0.00,Wunderground v.1.15,2013-07-07 13:10:00,
2013-07-07 09:20:00,74.8,72.3,30.18,SSW,196,0.0,0.0,92,0.00,,,0.00,Wunderground v.1.15,2013-07-07 13:20:00,
2013-07-07 09:30:00,74.9,72.4,30.18,SSW,196,0.0,0.0,92,0.00,,,0.00,Wunderground v.1.15,2013-07-07 13:30:00,
2013-07-07 09:40:00,75.4,72.6,30.18,West,271,1.0,1.0,91,0.00,,,0.00,Wunderground v.1.15,2013-07-07 13:40:00,
2013-07-07 09:50:00,75.5,72.7,30.18,West,271,1.0,1.0,91,0.00,,,0.00,Wunderground v.1.15,2013-07-07 13:50:00,
2013-07-07 10:00:00,75.5,72.7,30.17,North,360,0.0,0.0,91,0.00,,,0.00,Wunderground v.1.15,2013-07-07 14:00:00,
2013-07-07 10:10:00,75.4,72.6,30.17,North,360,0.0,1.0,91,0.00,,,0.00,Wunderground v.1.15,2013-07-07 14:10:00,
2013-07-07 10:20:00,75.2,72.7,30.17,North,360,0.0,0.0,92,0.00,,,0.00,Wunderground v.1.15,2013-07-07 14:20:00,
2013-07-07 10:30:00,75.3,72.5,30.18,North,360,0.0,0.0,91,0.00,,,0.00,Wunderground v.1.15,2013-07-07 14:30:00,
2013-07-07 10:40:00,76.5,73.7,30.17,North,360,0.0,0.0,91,0.00,,,0.00,Wunderground v.1.15,2013-07-07 14:40:00,
2013-07-07 10:50:00,77.5,74.0,30.17,West,277,1.0,3.0,89,0.00,,,0.00,Wunderground v.1.15,2013-07-07 14:50:00,
2013-07-07 11:00:00,78.2,74.4,30.17,West,277,0.0,1.0,88,0.00,,,0.00,Wunderground v.1.15,2013-07-07 15:00:00,
2013-07-07 11:10:00,78.7,74.5,30.17,NNE,24,1.0,1.0,87,0.00,,,0.00,Wunderground v.1.15,2013-07-07 15:10:00,
2013-07-07 11:20:00,79.2,75.3,30.17,NNE,27,0.0,1.0,88,0.00,,,0.00,Wunderground v.1.15,2013-07-07 15:20:00,
2013-07-07 11:30:00,79.1,74.5,30.17,NNE,25,1.0,1.0,86,0.00,,,0.00,Wunderground v.1.15,2013-07-07 15:30:00,
2013-07-07 11:34:00,78.9,74.7,30.17,NNE,23,0.0,-999.0,87,0.00,,,0.00,Wunderground v.1.15,2013-07-07 15:34:00,
2013-07-07 11:39:00,78.7,74.5,30.17,NNE,23,0.0,-999.0,87,0.00,,,0.00,Wunderground v.1.15,2013-07-07 15:39:00,
2013-07-07 11:44:00,78.7,74.5,30.17,NNE,23,0.0,-999.0,87,0.00,,,0.00,Wunderground v.1.15,2013-07-07 15:44:00,
2013-07-07 11:49:00,79.4,74.8,30.16,NNE,23,0.0,-999.0,86,0.00,,,0.00,Wunderground v.1.15,2013-07-07 15:49:00,
2013-07-07 11:54:00,79.4,74.8,30.16,NNE,23,0.0,-999.0,86,0.00,,,0.00,Wunderground v.1.15,2013-07-07 15:54:00,
2013-07-07 11:59:00,80.1,75.5,30.17,SSW,203,1.0,-999.0,86,0.00,,,0.00,Wunderground v.1.15,2013-07-07 15:59:00,
2013-07-07 12:04:00,80.1,75.5,30.17,SSW,203,1.0,-999.0,86,0.00,,,0.00,Wunderground v.1.15,2013-07-07 16:04:00,
2013-07-07 12:09:00,80.5,75.2,30.17,WSW,248,1.0,-999.0,84,0.00,,,0.00,Wunderground v.1.15,2013-07-07 16:09:00,
2013-07-07 12:14:00,80.5,75.2,30.17,WSW,248,1.0,-999.0,84,0.00,,,0.00,Wunderground v.1.15,2013-07-07 16:14:00,
2013-07-07 12:19:00,80.8,75.9,30.16,East,90,0.0,-999.0,85,0.00,,,0.00,Wunderground v.1.15,2013-07-07 16:19:00,
2013-07-07 12:24:00,80.8,75.9,30.16,East,90,0.0,-999.0,85,0.00,,,0.00,Wunderground v.1.15,2013-07-07 16:24:00,
2013-07-07 12:29:00,81.1,75.4,30.16,East,90,1.0,-999.0,83,0.00,,,0.00,Wunderground v.1.15,2013-07-07 16:29:00,
2013-07-07 12:34:00,81.1,75.4,30.16,East,90,1.0,-999.0,83,0.00,,,0.00,Wunderground v.1.15,2013-07-07 16:34:00,
2013-07-07 12:39:00,81.1,75.8,30.15,SW,225,1.0,-999.0,84,0.00,,,0.00,Wunderground v.1.15,2013-07-07 16:39:00,
2013-07-07 12:44:00,81.1,75.8,30.15,SW,225,1.0,-999.0,84,0.00,,,0.00,Wunderground v.1.15,2013-07-07 16:44:00,
2013-07-07 12:49:00,81.1,75.4,30.15,SW,225,1.0,-999.0,83,0.00,,,0.00,Wunderground v.1.15,2013-07-07 16:49:00,
2013-07-07 12:54:00,81.1,75.4,30.15,SW,225,1.0,-999.0,83,0.00,,,0.00,Wunderground v.1.15,2013-07-07 16:54:00,
2013-07-07 12:59:00,82.0,76.0,30.15,West,270,1.0,-999.0,82,0.00,,,0.00,Wunderground v.1.15,2013-07-07 16:59:00,
2013-07-07 13:04:00,82.0,76.0,30.15,West,270,1.0,-999.0,82,0.00,,,0.00,Wunderground v.1.15,2013-07-07 17:04:00,
2013-07-07 13:09:00,82.8,76.0,30.15,SSW,203,1.0,-999.0,80,0.00,,,0.00,Wunderground v.1.15,2013-07-07 17:09:00,
2013-07-07 13:14:00,82.8,76.0,30.15,SSW,203,1.0,-999.0,80,0.00,,,0.00,Wunderground v.1.15,2013-07-07 17:14:00,
2013-07-07 13:19:00,82.0,75.6,30.14,SSW,203,1.0,-999.0,81,0.00,,,0.00,Wunderground v.1.15,2013-07-07 17:19:00,
2013-07-07 13:40:00,82.0,76.0,30.13,SSW,197,0.0,2.0,82,0.00,,,0.00,Wunderground v.1.15,2013-07-07 17:40:00,
2013-07-07 13:50:00,83.0,76.9,30.14,SW,229,0.0,2.0,82,0.00,,,0.00,Wunderground v.1.15,2013-07-07 17:50:00,
2013-07-07 14:00:00,84.0,77.5,30.13,South,183,1.0,1.0,81,0.00,,,0.00,Wunderground v.1.15,2013-07-07 18:00:00,
2013-07-07 14:10:00,83.6,77.1,30.13,SSE,168,1.0,1.0,81,0.00,,,0.00,Wunderground v.1.15,2013-07-07 18:10:00,
2013-07-07 14:20:00,83.0,75.8,30.13,SW,236,1.0,2.0,79,0.00,,,0.00,Wunderground v.1.15,2013-07-07 18:20:00,
2013-07-07 14:30:00,82.9,75.7,30.12,SW,236,1.0,1.0,79,0.00,,,0.00,Wunderground v.1.15,2013-07-07 18:30:00,
2013-07-07 14:40:00,82.9,76.1,30.12,WNW,294,0.0,1.0,80,0.00,,,0.00,Wunderground v.1.15,2013-07-07 18:40:00,
2013-07-07 14:45:00,83.1,77.4,30.12,WNW,293,0.0,-999.0,83,0.00,,,0.01,Wunderground v.1.15,2013-07-07 18:45:00,
2013-07-07 14:50:00,83.1,77.4,30.12,WNW,293,0.0,-999.0,83,0.00,,,0.01,Wunderground v.1.15,2013-07-07 18:50:00,
2013-07-07 14:55:00,82.9,76.5,30.11,WNW,293,0.0,-999.0,81,0.00,,,0.01,Wunderground v.1.15,2013-07-07 18:55:00,
2013-07-07 15:00:00,82.9,76.5,30.11,WNW,293,0.0,-999.0,81,0.00,,,0.01,Wunderground v.1.15,2013-07-07 19:00:00,
2013-07-07 15:05:00,83.4,77.0,30.11,ESE,113,0.0,-999.0,81,0.00,,,0.01,Wunderground v.1.15,2013-07-07 19:05:00,
2013-07-07 15:10:00,83.4,77.0,30.11,ESE,113,0.0,-999.0,81,0.00,,,0.01,Wunderground v.1.15,2013-07-07 19:10:00,
2013-07-07 15:15:00,84.0,76.8,30.10,WSW,248,0.0,-999.0,79,0.00,,,0.01,Wunderground v.1.15,2013-07-07 19:15:00,
2013-07-07 15:20:00,84.0,76.8,30.10,WSW,248,0.0,-999.0,79,0.00,,,0.01,Wunderground v.1.15,2013-07-07 19:20:00,
2013-07-07 15:25:00,83.6,76.4,30.11,WSW,248,1.0,-999.0,79,0.00,,,0.01,Wunderground v.1.15,2013-07-07 19:25:00,
2013-07-07 15:30:00,83.6,76.4,30.11,WSW,248,1.0,-999.0,79,0.00,,,0.01,Wunderground v.1.15,2013-07-07 19:30:00,
2013-07-07 15:35:00,82.5,76.8,30.10,WSW,248,0.0,-999.0,83,0.01,,,0.01,Wunderground v.1.15,2013-07-07 19:35:00,
2013-07-07 15:40:00,82.5,76.8,30.10,WSW,248,0.0,-999.0,83,0.01,,,0.01,Wunderground v.1.15,2013-07-07 19:40:00,
2013-07-07 15:45:00,82.2,77.6,30.10,West,270,0.0,-999.0,86,0.01,,,0.01,Wunderground v.1.15,2013-07-07 19:45:00,
2013-07-07 15:50:00,82.2,77.6,30.10,West,270,0.0,-999.0,86,0.01,,,0.01,Wunderground v.1.15,2013-07-07 19:50:00,
2013-07-07 15:55:00,82.8,78.2,30.10,West,270,0.0,-999.0,86,0.01,,,0.01,Wunderground v.1.15,2013-07-07 19:55:00,
2013-07-07 16:00:00,82.8,78.2,30.10,West,270,0.0,-999.0,86,0.01,,,0.01,Wunderground v.1.15,2013-07-07 20:00:00,
2013-07-07 16:05:00,83.0,78.4,30.09,West,270,0.0,-999.0,86,0.01,,,0.01,Wunderground v.1.15,2013-07-07 20:05:00,
2013-07-07 16:10:00,83.0,78.4,30.09,West,270,0.0,-999.0,86,0.01,,,0.01,Wunderground v.1.15,2013-07-07 20:10:00,
2013-07-07 16:15:00,83.6,78.6,30.08,West,270,0.0,-999.0,85,0.01,,,0.01,Wunderground v.1.15,2013-07-07 20:15:00,
2013-07-07 16:20:00,83.6,78.6,30.08,West,270,0.0,-999.0,85,0.01,,,0.01,Wunderground v.1.15,2013-07-07 20:20:00,
2013-07-07 16:25:00,84.1,77.6,30.08,WSW,248,0.0,-999.0,81,0.01,,,0.01,Wunderground v.1.15,2013-07-07 20:25:00,
2013-07-07 16:30:00,84.1,77.6,30.08,WSW,248,0.0,-999.0,81,0.01,,,0.01,Wunderground v.1.15,2013-07-07 20:30:00,
2013-07-07 16:35:00,83.8,76.6,30.08,WSW,248,1.0,-999.0,79,0.00,,,0.01,Wunderground v.1.15,2013-07-07 20:35:00,
2013-07-07 16:40:00,83.8,76.6,30.08,WSW,248,1.0,-999.0,79,0.00,,,0.01,Wunderground v.1.15,2013-07-07 20:40:00,
2013-07-07 16:45:00,84.0,77.9,30.07,West,270,0.0,-999.0,82,0.00,,,0.01,Wunderground v.1.15,2013-07-07 20:45:00,
2013-07-07 16:50:00,84.0,77.9,30.07,West,270,0.0,-999.0,82,0.00,,,0.01,Wunderground v.1.15,2013-07-07 20:50:00,
2013-07-07 16:55:00,83.4,77.7,30.07,West,270,0.0,-999.0,83,0.00,,,0.01,Wunderground v.1.15,2013-07-07 20:55:00,
2013-07-07 17:00:00,83.4,77.7,30.07,West,270,0.0,-999.0,83,0.00,,,0.01,Wunderground v.1.15,2013-07-07 21:00:00,
2013-07-07 17:05:00,83.0,76.6,30.07,West,270,0.0,-999.0,81,0.00,,,0.01,Wunderground v.1.15,2013-07-07 21:05:00,
2013-07-07 17:10:00,83.0,76.6,30.07,West,270,0.0,-999.0,81,0.00,,,0.01,Wunderground v.1.15,2013-07-07 21:10:00,
2013-07-07 17:15:00,82.5,76.1,30.07,South,180,1.0,-999.0,81,0.00,,,0.01,Wunderground v.1.15,2013-07-07 21:15:00,
2013-07-07 17:20:00,82.5,76.1,30.07,South,180,1.0,-999.0,81,0.00,,,0.01,Wunderground v.1.15,2013-07-07 21:20:00,
2013-07-07 17:25:00,81.8,75.4,30.06,South,180,0.0,-999.0,81,0.00,,,0.01,Wunderground v.1.15,2013-07-07 21:25:00,
2013-07-07 17:30:00,81.8,75.4,30.06,South,180,0.0,-999.0,81,0.00,,,0.01,Wunderground v.1.15,2013-07-07 21:30:00,
2013-07-07 17:35:00,81.8,75.8,30.06,South,180,0.0,-999.0,82,0.00,,,0.01,Wunderground v.1.15,2013-07-07 21:35:00,
2013-07-07 17:40:00,81.8,75.8,30.06,South,180,0.0,-999.0,82,0.00,,,0.01,Wunderground v.1.15,2013-07-07 21:40:00,
2013-07-07 17:45:00,82.1,76.1,30.06,South,180,0.0,-999.0,82,0.00,,,0.01,Wunderground v.1.15,2013-07-07 21:45:00,
2013-07-07 17:50:00,82.1,76.1,30.06,South,180,0.0,-999.0,82,0.00,,,0.01,Wunderground v.1.15,2013-07-07 21:50:00,
2013-07-07 17:55:00,82.3,77.3,30.06,N/A,-737280,0.0,-999.0,85,0.00,,,0.01,Wunderground v.1.15,2013-07-07 21:55:00,
2013-07-07 18:00:00,82.3,77.3,30.06,N/A,-737280,0.0,-999.0,85,0.00,,,0.01,Wunderground v.1.15,2013-07-07 22:00:00,
2013-07-07 18:05:00,82.3,77.3,30.06,N/A,-737280,0.0,-999.0,85,0.00,,,0.01,Wunderground v.1.15,2013-07-07 22:05:00,
2013-07-07 18:20:00,82.5,77.5,30.06,South,186,0.0,0.0,85,0.00,,,0.01,Wunderground v.1.15,2013-07-07 22:20:00,
2013-07-07 18:30:00,82.4,77.4,30.06,South,186,0.0,0.0,85,0.00,,,0.01,Wunderground v.1.15,2013-07-07 22:30:00,
2013-07-07 18:40:00,82.5,77.9,30.06,South,186,0.0,0.0,86,0.00,,,0.01,Wunderground v.1.15,2013-07-07 22:40:00,
2013-07-07 18:50:00,82.1,76.8,30.06,South,186,0.0,0.0,84,0.00,,,0.01,Wunderground v.1.15,2013-07-07 22:50:00,
2013-07-07 19:00:00,82.0,77.4,30.06,South,186,0.0,0.0,86,0.00,,,0.01,Wunderground v.1.15,2013-07-07 23:00:00,
2013-07-07 19:10:00,81.8,77.2,30.06,South,186,0.0,0.0,86,0.00,,,0.01,Wunderground v.1.15,2013-07-07 23:10:00,
2013-07-07 19:20:00,81.6,77.0,30.06,South,186,0.0,0.0,86,0.00,,,0.01,Wunderground v.1.15,2013-07-07 23:20:00,
2013-07-07 19:30:00,81.3,77.1,30.07,South,186,0.0,0.0,87,0.00,,,0.01,Wunderground v.1.15,2013-07-07 23:30:00,
2013-07-07 19:40:00,81.0,77.1,30.06,South,186,0.0,0.0,88,0.00,,,0.01,Wunderground v.1.15,2013-07-07 23:40:00,
2013-07-07 19:50:00,80.7,76.8,30.07,South,186,0.0,0.0,88,0.00,,,0.01,Wunderground v.1.15,2013-07-07 23:50:00,
2013-07-07 20:00:00,80.3,76.4,30.07,South,186,0.0,0.0,88,0.00,,,0.01,Wunderground v.1.15,2013-07-08 00:00:00,
2013-07-07 20:10:00,79.9,76.0,30.07,South,186,0.0,0.0,88,0.00,,,0.01,Wunderground v.1.15,2013-07-08 00:10:00,
2013-07-07 20:20:00,79.4,75.9,30.08,South,186,0.0,0.0,89,0.00,,,0.01,Wunderground v.1.15,2013-07-08 00:20:00,
2013-07-07 20:30:00,79.1,75.6,30.07,South,186,0.0,0.0,89,0.00,,,0.01,Wunderground v.1.15,2013-07-08 00:30:00,
2013-07-07 20:40:00,78.7,75.2,30.08,South,186,0.0,0.0,89,0.00,,,0.01,Wunderground v.1.15,2013-07-08 00:40:00,
2013-07-07 20:50:00,77.5,73.3,30.10,NW,312,1.0,1.0,87,0.00,,,0.01,Wunderground v.1.15,2013-07-08 00:50:00,
2013-07-07 21:00:00,76.3,72.1,30.10,North,355,0.0,0.0,87,0.00,,,0.01,Wunderground v.1.15,2013-07-08 01:00:00,
2013-07-07 21:10:00,75.8,72.0,30.11,WNW,287,0.0,0.0,88,0.00,,,0.01,Wunderground v.1.15,2013-07-08 01:10:00,
2013-07-07 21:20:00,75.5,72.0,30.10,WNW,287,0.0,0.0,89,0.00,,,0.01,Wunderground v.1.15,2013-07-08 01:20:00,
2013-07-07 21:30:00,75.2,71.7,30.12,NNW,328,0.0,0.0,89,0.59,,,0.04,Wunderground v.1.15,2013-07-08 01:30:00,
2013-07-07 21:40:00,74.8,71.7,30.12,WNW,294,1.0,1.0,90,0.08,,,0.08,Wunderground v.1.15,2013-07-08 01:40:00,
2013-07-07 21:50:00,74.2,71.4,30.13,WNW,288,0.0,0.0,91,0.37,,,0.11,Wunderground v.1.15,2013-07-08 01:50:00,
2013-07-07 22:00:00,73.6,70.8,30.13,West,279,0.0,0.0,91,0.59,,,0.21,Wunderground v.1.15,2013-07-08 02:00:00,
2013-07-07 22:10:00,73.0,70.2,30.12,West,279,0.0,0.0,91,0.20,,,0.23,Wunderground v.1.15,2013-07-08 02:10:00,
2013-07-07 22:20:00,72.7,70.2,30.12,West,279,0.0,0.0,92,0.06,,,0.24,Wunderground v.1.15,2013-07-08 02:20:00,
2013-07-07 22:30:00,72.6,70.1,30.11,West,279,0.0,0.0,92,0.00,,,0.24,Wunderground v.1.15,2013-07-08 02:30:00,
2013-07-07 22:40:00,72.6,70.1,30.12,West,279,0.0,0.0,92,0.00,,,0.24,Wunderground v.1.15,2013-07-08 02:40:00,
2013-07-07 22:50:00,72.6,70.5,30.14,West,279,0.0,0.0,93,0.00,,,0.24,Wunderground v.1.15,2013-07-08 02:50:00,
2013-07-07 23:00:00,72.5,70.4,30.14,West,279,0.0,0.0,93,0.00,,,0.25,Wunderground v.1.15,2013-07-08 03:00:00,
2013-07-07 23:10:00,72.7,70.6,30.13,West,279,0.0,0.0,93,0.00,,,0.25,Wunderground v.1.15,2013-07-08 03:10:00,
2013-07-07 23:20:00,72.7,70.6,30.14,West,279,0.0,0.0,93,0.00,,,0.25,Wunderground v.1.15,2013-07-08 03:20:00,
2013-07-07 23:30:00,72.6,70.5,30.13,West,279,0.0,0.0,93,0.00,,,0.25,Wunderground v.1.15,2013-07-08 03:30:00,
2013-07-07 23:40:00,72.6,70.5,30.14,West,279,0.0,0.0,93,0.00,,,0.25,Wunderground v.1.15,2013-07-08 03:40:00,
2013-07-07 23:50:00,72.4,70.3,30.14,West,279,0.0,0.0,93,0.00,,,0.25,Wunderground v.1.15,2013-07-08 03:50:00,